Time,TemperatureF,DewpointF,PressureIn,WindDirection,WindDirectionDegrees,WindSpeedMPH,WindSpeedGustMPH,Humidity,HourlyPrecipIn,Conditions,Clouds,dailyrainin,SoftwareType,DateUTC
2013-02-28 00:02:00,45.0,35.0,29.75,WSW,255,3.0,6.0,67,0.00,,,0.00,,2013-02-28 05:02:00,
2013-02-28 00:11:00,45.0,35.0,29.75,WSW,255,3.0,6.0,67,0.00,,,0.00,,2013-02-28 05:11:00,
2013-02-28 00:22:00,45.0,35.0,29.74,West,266,3.0,7.0,68,0.00,,,0.00,,2013-02-28 05:22:00,
2013-02-28 00:32:00,45.0,35.0,29.74,West,271,4.0,8.0,69,0.00,,,0.00,,2013-02-28 05:32:00,
2013-02-28 00:42:00,45.0,35.0,29.74,West,271,4.0,8.0,69,0.00,,,0.00,,2013-02-28 05:42:00,
2013-02-28 00:52:00,45.0,36.0,29.74,West,273,4.0,7.0,70,0.00,,,0.00,,2013-02-28 05:52:00,
2013-02-28 01:02:00,45.0,36.0,29.74,WNW,286,4.0,8.0,70,0.00,,,0.00,,2013-02-28 06:02:00,
2013-02-28 01:11:00,45.0,36.0,29.74,WNW,286,4.0,8.0,70,0.00,,,0.00,,2013-02-28 06:11:00,
2013-02-28 01:22:00,46.0,37.0,29.74,West,262,5.0,11.0,70,0.00,,,0.00,,2013-02-28 06:22:00,
2013-02-28 01:32:00,46.0,36.0,29.75,West,263,8.0,16.0,68,0.00,,,0.00,,2013-02-28 06:32:00,
2013-02-28 01:42:00,46.0,36.0,29.75,West,263,8.0,16.0,68,0.00,,,0.00,,2013-02-28 06:42:00,
2013-02-28 01:52:00,47.0,36.0,29.75,WNW,300,6.0,19.0,65,0.00,,,0.00,,2013-02-28 06:52:00,
2013-02-28 02:01:00,47.0,35.0,29.74,WSW,241,7.0,13.0,64,0.00,,,0.00,,2013-02-28 07:01:00,
2013-02-28 02:11:00,47.0,35.0,29.74,WSW,241,7.0,13.0,64,0.00,,,0.00,,2013-02-28 07:11:00,
2013-02-28 02:22:00,46.0,35.0,29.74,WNW,284,5.0,14.0,64,0.00,,,0.00,,2013-02-28 07:22:00,
2013-02-28 02:32:00,46.0,35.0,29.74,WNW,302,7.0,13.0,64,0.00,,,0.00,,2013-02-28 07:32:00,
2013-02-28 02:42:00,46.0,35.0,29.74,WNW,302,7.0,13.0,64,0.00,,,0.00,,2013-02-28 07:42:00,
2013-02-28 02:51:00,46.0,34.0,29.74,West,275,7.0,12.0,63,0.00,,,0.00,,2013-02-28 07:51:00,
2013-02-28 03:01:00,45.0,34.0,29.73,West,259,5.0,14.0,64,0.00,,,0.00,,2013-02-28 08:01:00,
2013-02-28 03:11:00,45.0,34.0,29.73,West,259,5.0,14.0,64,0.00,,,0.00,,2013-02-28 08:11:00,
2013-02-28 03:22:00,45.0,34.0,29.73,West,276,5.0,12.0,64,0.00,,,0.00,,2013-02-28 08:22:00,
2013-02-28 03:32:00,44.0,32.0,29.73,West,275,6.0,16.0,63,0.00,,,0.00,,2013-02-28 08:32:00,
2013-02-28 03:42:00,44.0,32.0,29.73,West,275,6.0,16.0,63,0.00,,,0.00,,2013-02-28 08:42:00,
2013-02-28 03:52:00,44.0,32.0,29.73,West,275,6.0,16.0,63,0.00,,,0.00,,2013-02-28 08:52:00,
2013-02-28 04:03:00,44.0,31.0,29.73,WSW,248,6.0,13.0,61,0.00,,,0.00,,2013-02-28 09:03:00,
2013-02-28 04:12:00,44.0,31.0,29.73,WSW,248,6.0,13.0,61,0.00,,,0.00,,2013-02-28 09:12:00,
2013-02-28 04:22:00,44.0,31.0,29.73,WNW,297,4.0,10.0,61,0.00,,,0.00,,2013-02-28 09:22:00,
2013-02-28 04:32:00,43.0,31.0,29.72,West,269,8.0,15.0,63,0.00,,,0.00,,2013-02-28 09:32:00,
2013-02-28 04:42:00,43.0,31.0,29.72,West,269,8.0,15.0,63,0.00,,,0.00,,2013-02-28 09:42:00,
2013-02-28 04:52:00,43.0,32.0,29.72,WSW,252,7.0,14.0,64,0.00,,,0.00,,2013-02-28 09:52:00,
2013-02-28 05:02:00,42.0,31.0,29.73,West,262,7.0,15.0,64,0.00,,,0.00,,2013-02-28 10:02:00,
2013-02-28 05:12:00,42.0,31.0,29.73,West,262,7.0,15.0,64,0.00,,,0.00,,2013-02-28 10:12:00,
2013-02-28 05:22:00,42.0,31.0,29.73,West,262,7.0,15.0,64,0.00,,,0.00,,2013-02-28 10:22:00,
2013-02-28 05:32:00,42.0,30.0,29.74,West,261,8.0,14.0,63,0.00,,,0.00,,2013-02-28 10:32:00,
2013-02-28 05:42:00,42.0,30.0,29.74,West,261,8.0,14.0,63,0.00,,,0.00,,2013-02-28 10:42:00,
2013-02-28 05:52:00,42.0,30.0,29.74,WSW,248,6.0,11.0,63,0.00,,,0.00,,2013-02-28 10:52:00,
2013-02-28 06:02:00,42.0,30.0,29.74,WSW,245,8.0,16.0,63,0.00,,,0.00,,2013-02-28 11:02:00,
2013-02-28 06:11:00,42.0,30.0,29.74,WSW,245,8.0,16.0,63,0.00,,,0.00,,2013-02-28 11:11:00,
2013-02-28 06:22:00,41.0,29.0,29.74,West,279,9.0,14.0,62,0.00,,,0.00,,2013-02-28 11:22:00,
2013-02-28 06:32:00,41.0,28.0,29.74,West,266,8.0,15.0,60,0.00,,,0.00,,2013-02-28 11:32:00,
2013-02-28 06:42:00,41.0,28.0,29.74,West,266,8.0,15.0,60,0.00,,,0.00,,2013-02-28 11:42:00,
2013-02-28 06:52:00,41.0,27.0,29.74,West,277,9.0,16.0,58,0.00,,,0.00,,2013-02-28 11:52:00,
2013-02-28 07:02:00,41.0,27.0,29.74,West,260,7.0,14.0,57,0.00,,,0.00,,2013-02-28 12:02:00,
2013-02-28 07:12:00,41.0,27.0,29.74,West,260,7.0,14.0,57,0.00,,,0.00,,2013-02-28 12:12:00,
2013-02-28 07:22:00,40.0,26.0,29.75,WNW,300,5.0,12.0,56,0.00,,,0.00,,2013-02-28 12:22:00,
2013-02-28 07:32:00,40.0,26.0,29.75,WSW,253,4.0,13.0,57,0.00,,,0.00,,2013-02-28 12:32:00,
2013-02-28 07:42:00,40.0,26.0,29.75,WSW,253,4.0,13.0,57,0.00,,,0.00,,2013-02-28 12:42:00,
2013-02-28 07:52:00,40.0,26.0,29.76,WNW,286,5.0,16.0,57,0.00,,,0.00,,2013-02-28 12:52:00,
2013-02-28 08:02:00,40.0,26.0,29.77,WNW,292,5.0,9.0,57,0.00,,,0.00,,2013-02-28 13:02:00,
2013-02-28 08:12:00,40.0,26.0,29.77,WNW,292,5.0,9.0,57,0.00,,,0.00,,2013-02-28 13:12:00,
2013-02-28 08:22:00,40.0,26.0,29.77,West,271,6.0,11.0,57,0.00,,,0.00,,2013-02-28 13:22:00,
2013-02-28 08:32:00,41.0,27.0,29.78,WSW,246,6.0,12.0,57,0.00,,,0.00,,2013-02-28 13:32:00,
2013-02-28 08:42:00,41.0,27.0,29.78,WSW,246,6.0,12.0,57,0.00,,,0.00,,2013-02-28 13:42:00,
2013-02-28 08:52:00,41.0,27.0,29.79,WNW,296,7.0,13.0,57,0.00,,,0.00,,2013-02-28 13:52:00,
2013-02-28 09:02:00,42.0,27.0,29.80,West,267,9.0,16.0,56,0.00,,,0.00,,2013-02-28 14:02:00,
2013-02-28 09:11:00,43.0,28.0,29.80,West,268,8.0,14.0,55,0.00,,,0.00,,2013-02-28 14:11:00,
2013-02-28 09:22:00,43.0,28.0,29.80,West,268,8.0,14.0,55,0.00,,,0.00,,2013-02-28 14:22:00,
2013-02-28 09:32:00,44.0,28.0,29.80,NW,315,5.0,12.0,54,0.00,,,0.00,,2013-02-28 14:32:00,
2013-02-28 09:42:00,44.0,28.0,29.80,NW,315,5.0,12.0,54,0.00,,,0.00,,2013-02-28 14:42:00,
2013-02-28 09:52:00,44.0,29.0,29.80,West,259,6.0,11.0,55,0.00,,,0.00,,2013-02-28 14:52:00,
2013-02-28 10:02:00,44.0,29.0,29.80,West,271,5.0,13.0,55,0.00,,,0.00,,2013-02-28 15:02:00,
2013-02-28 10:11:00,44.0,29.0,29.80,West,271,5.0,13.0,55,0.00,,,0.00,,2013-02-28 15:11:00,
2013-02-28 10:22:00,45.0,30.0,29.79,West,265,6.0,15.0,55,0.00,,,0.00,,2013-02-28 15:22:00,
2013-02-28 10:32:00,46.0,30.0,29.79,West,272,5.0,16.0,54,0.00,,,0.00,,2013-02-28 15:32:00,
2013-02-28 10:42:00,46.0,30.0,29.79,West,272,5.0,16.0,54,0.00,,,0.00,,2013-02-28 15:42:00,
2013-02-28 10:52:00,46.0,29.0,29.79,WNW,290,5.0,17.0,52,0.00,,,0.00,,2013-02-28 15:52:00,
2013-02-28 11:02:00,47.0,30.0,29.79,WNW,284,6.0,15.0,52,0.00,,,0.00,,2013-02-28 16:02:00,
2013-02-28 11:12:00,47.0,30.0,29.79,WNW,284,6.0,15.0,52,0.00,,,0.00,,2013-02-28 16:12:00,
2013-02-28 11:22:00,47.0,29.0,29.79,WNW,301,7.0,14.0,49,0.00,,,0.00,,2013-02-28 16:22:00,
2013-02-28 11:32:00,47.0,30.0,29.79,West,271,5.0,13.0,51,0.00,,,0.00,,2013-02-28 16:32:00,
2013-02-28 11:42:00,47.0,30.0,29.79,West,271,5.0,13.0,51,0.00,,,0.00,,2013-02-28 16:42:00,
2013-02-28 11:52:00,46.0,29.0,29.79,West,277,4.0,11.0,51,0.00,,,0.00,,2013-02-28 16:52:00,
2013-02-28 12:02:00,48.0,31.0,29.79,WSW,252,9.0,14.0,51,0.00,,,0.00,,2013-02-28 17:02:00,
2013-02-28 12:12:00,48.0,30.0,29.80,West,275,7.0,19.0,50,0.00,,,0.00,,2013-02-28 17:12:00,
2013-02-28 12:22:00,48.0,30.0,29.80,West,275,7.0,19.0,50,0.00,,,0.00,,2013-02-28 17:22:00,
2013-02-28 12:32:00,48.0,30.0,29.79,WNW,292,6.0,13.0,49,0.00,,,0.00,,2013-02-28 17:32:00,
2013-02-28 12:42:00,48.0,30.0,29.79,WNW,292,6.0,13.0,49,0.00,,,0.00,,2013-02-28 17:42:00,
2013-02-28 12:52:00,48.0,31.0,29.80,West,272,9.0,15.0,51,0.00,,,0.00,,2013-02-28 17:52:00,
2013-02-28 13:02:00,49.0,31.0,29.79,SSW,200,5.0,17.0,50,0.00,,,0.00,,2013-02-28 18:02:00,
2013-02-28 13:12:00,49.0,31.0,29.79,SSW,200,5.0,17.0,50,0.00,,,0.00,,2013-02-28 18:12:00,
2013-02-28 13:22:00,52.0,32.0,29.79,West,271,9.0,16.0,46,0.00,,,0.00,,2013-02-28 18:22:00,
2013-02-28 13:32:00,51.0,31.0,29.78,West,267,8.0,15.0,47,0.00,,,0.00,,2013-02-28 18:32:00,
2013-02-28 13:42:00,51.0,31.0,29.78,West,267,8.0,15.0,47,0.00,,,0.00,,2013-02-28 18:42:00,
2013-02-28 13:52:00,51.0,31.0,29.78,North,355,11.0,19.0,46,0.00,,,0.00,,2013-02-28 18:52:00,
2013-02-28 14:02:00,50.0,31.0,29.78,WSW,237,5.0,21.0,47,0.00,,,0.00,,2013-02-28 19:02:00,
2013-02-28 14:12:00,50.0,31.0,29.78,WSW,237,5.0,21.0,47,0.00,,,0.00,,2013-02-28 19:12:00,
2013-02-28 14:22:00,51.0,31.0,29.78,WSW,238,8.0,19.0,46,0.00,,,0.00,,2013-02-28 19:22:00,
2013-02-28 14:32:00,51.0,30.0,29.78,SW,221,9.0,20.0,45,0.00,,,0.00,,2013-02-28 19:32:00,
2013-02-28 14:42:00,51.0,30.0,29.78,SW,221,9.0,20.0,45,0.00,,,0.00,,2013-02-28 19:42:00,
2013-02-28 14:52:00,51.0,30.0,29.78,SW,228,5.0,17.0,44,0.00,,,0.00,,2013-02-28 19:52:00,
2013-02-28 15:01:00,50.0,29.0,29.78,WSW,251,9.0,20.0,44,0.00,,,0.00,,2013-02-28 20:01:00,
2013-02-28 15:12:00,50.0,29.0,29.78,WSW,251,9.0,20.0,44,0.00,,,0.00,,2013-02-28 20:12:00,
2013-02-28 15:22:00,51.0,30.0,29.78,SW,229,6.0,19.0,45,0.00,,,0.00,,2013-02-28 20:22:00,
2013-02-28 15:32:00,51.0,30.0,29.78,SW,229,6.0,19.0,45,0.00,,,0.00,,2013-02-28 20:32:00,
2013-02-28 15:42:00,51.0,30.0,29.78,SW,229,6.0,19.0,45,0.00,,,0.00,,2013-02-28 20:42:00,
2013-02-28 15:52:00,51.0,30.0,29.78,SW,229,6.0,19.0,45,0.00,,,0.00,,2013-02-28 20:52:00,
2013-02-28 16:02:00,51.0,30.0,29.78,WNW,285,5.0,22.0,44,0.00,,,0.00,,2013-02-28 21:02:00,
2013-02-28 16:11:00,51.0,30.0,29.78,WNW,285,5.0,22.0,44,0.00,,,0.00,,2013-02-28 21:11:00,
2013-02-28 16:22:00,50.0,29.0,29.79,WNW,287,4.0,19.0,45,0.00,,,0.00,,2013-02-28 21:22:00,
2013-02-28 16:32:00,51.0,30.0,29.79,SSE,168,8.0,21.0,45,0.00,,,0.00,,2013-02-28 21:32:00,
2013-02-28 16:42:00,51.0,30.0,29.79,SSE,168,8.0,21.0,45,0.00,,,0.00,,2013-02-28 21:42:00,
2013-02-28 16:52:00,50.0,30.0,29.80,NW,307,7.0,17.0,46,0.00,,,0.00,,2013-02-28 21:52:00,
2013-02-28 17:02:00,50.0,30.0,29.80,NW,307,7.0,17.0,46,0.00,,,0.00,,2013-02-28 22:02:00,
2013-02-28 17:11:00,50.0,30.0,29.80,NW,307,7.0,17.0,46,0.00,,,0.00,,2013-02-28 22:11:00,
2013-02-28 17:22:00,49.0,30.0,29.80,NW,311,12.0,17.0,48,0.00,,,0.00,,2013-02-28 22:22:00,
2013-02-28 17:32:00,48.0,30.0,29.80,West,279,10.0,18.0,50,0.00,,,0.00,,2013-02-28 22:32:00,
2013-02-28 17:42:00,48.0,30.0,29.80,West,279,10.0,18.0,50,0.00,,,0.00,,2013-02-28 22:42:00,
2013-02-28 17:52:00,48.0,30.0,29.80,West,279,10.0,18.0,50,0.00,,,0.00,,2013-02-28 22:52:00,
2013-02-28 18:02:00,47.0,31.0,29.82,West,259,7.0,19.0,53,0.00,,,0.00,,2013-02-28 23:02:00,
2013-02-28 18:11:00,47.0,31.0,29.82,West,259,7.0,19.0,53,0.00,,,0.00,,2013-02-28 23:11:00,
2013-02-28 18:22:00,46.0,30.0,29.83,SW,229,10.0,16.0,53,0.00,,,0.00,,2013-02-28 23:22:00,
2013-02-28 18:32:00,46.0,30.0,29.84,WNW,291,7.0,15.0,54,0.00,,,0.00,,2013-02-28 23:32:00,
2013-02-28 18:42:00,46.0,30.0,29.84,WNW,291,7.0,15.0,54,0.00,,,0.00,,2013-02-28 23:42:00,
2013-02-28 18:52:00,45.0,30.0,29.85,West,266,4.0,13.0,55,0.00,,,0.00,,2013-02-28 23:52:00,
2013-02-28 19:02:00,44.0,30.0,29.85,West,280,4.0,13.0,57,0.00,,,0.00,,2013-03-01 00:02:00,
2013-02-28 19:11:00,44.0,30.0,29.85,West,280,4.0,13.0,57,0.00,,,0.00,,2013-03-01 00:11:00,
2013-02-28 19:22:00,43.0,29.0,29.86,West,267,6.0,9.0,58,0.00,,,0.00,,2013-03-01 00:22:00,
2013-02-28 19:32:00,42.0,29.0,29.85,West,281,7.0,12.0,59,0.00,,,0.00,,2013-03-01 00:32:00,
2013-02-28 19:42:00,42.0,29.0,29.85,West,281,7.0,12.0,59,0.00,,,0.00,,2013-03-01 00:42:00,
2013-02-28 19:51:00,41.0,28.0,29.86,West,264,4.0,11.0,60,0.00,,,0.00,,2013-03-01 00:51:00,
2013-02-28 20:01:00,41.0,28.0,29.86,West,269,3.0,12.0,60,0.00,,,0.00,,2013-03-01 01:01:00,
2013-02-28 20:11:00,41.0,28.0,29.86,West,269,3.0,12.0,60,0.00,,,0.00,,2013-03-01 01:11:00,
2013-02-28 20:22:00,40.0,28.0,29.86,West,275,3.0,10.0,61,0.00,,,0.00,,2013-03-01 01:22:00,
2013-02-28 20:32:00,40.0,28.0,29.86,WNW,290,2.0,9.0,62,0.00,,,0.00,,2013-03-01 01:32:00,
2013-02-28 20:42:00,40.0,28.0,29.86,WNW,290,2.0,9.0,62,0.00,,,0.00,,2013-03-01 01:42:00,
2013-02-28 20:52:00,39.0,27.0,29.86,WNW,297,4.0,8.0,63,0.00,,,0.00,,2013-03-01 01:52:00,
2013-02-28 21:01:00,39.0,27.0,29.87,WNW,303,2.0,7.0,63,0.00,,,0.00,,2013-03-01 02:01:00,
2013-02-28 21:11:00,38.0,27.0,29.87,NW,309,2.0,6.0,64,0.00,,,0.00,,2013-03-01 02:11:00,
2013-02-28 21:22:00,38.0,27.0,29.87,NW,309,2.0,6.0,64,0.00,,,0.00,,2013-03-01 02:22:00,
2013-02-28 21:32:00,38.0,27.0,29.88,WNW,300,0.0,5.0,65,0.00,,,0.00,,2013-03-01 02:32:00,
2013-02-28 21:42:00,38.0,27.0,29.88,WNW,300,0.0,5.0,65,0.00,,,0.00,,2013-03-01 02:42:00,
2013-02-28 21:52:00,38.0,28.0,29.88,WNW,300,0.0,2.0,66,0.00,,,0.00,,2013-03-01 02:52:00,
2013-02-28 22:02:00,37.0,27.0,29.88,WNW,300,0.0,2.0,67,0.00,,,0.00,,2013-03-01 03:02:00,
2013-02-28 22:12:00,37.0,27.0,29.88,WNW,300,0.0,2.0,67,0.00,,,0.00,,2013-03-01 03:12:00,
2013-02-28 22:22:00,37.0,28.0,29.88,WNW,300,0.0,2.0,69,0.00,,,0.00,,2013-03-01 03:22:00,
2013-02-28 22:32:00,36.0,27.0,29.89,WNW,300,0.0,2.0,70,0.00,,,0.00,,2013-03-01 03:32:00,
2013-02-28 22:42:00,36.0,27.0,29.89,WNW,300,0.0,2.0,70,0.00,,,0.00,,2013-03-01 03:42:00,
2013-02-28 22:52:00,35.0,27.0,29.89,WNW,300,0.0,0.0,72,0.00,,,0.00,,2013-03-01 03:52:00,
2013-02-28 23:02:00,34.0,27.0,29.88,WNW,300,0.0,0.0,75,0.00,,,0.00,,2013-03-01 04:02:00,
2013-02-28 23:12:00,34.0,27.0,29.88,WNW,300,0.0,0.0,75,0.00,,,0.00,,2013-03-01 04:12:00,
2013-02-28 23:22:00,33.0,26.0,29.88,WNW,300,1.0,3.0,76,0.00,,,0.00,,2013-03-01 04:22:00,
2013-02-28 23:32:00,33.0,27.0,29.88,WNW,291,0.0,3.0,78,0.00,,,0.00,,2013-03-01 04:32:00,
2013-02-28 23:42:00,33.0,27.0,29.88,WNW,291,0.0,3.0,78,0.00,,,0.00,,2013-03-01 04:42:00,
2013-02-28 23:52:00,32.0,26.0,29.88,WNW,291,0.0,1.0,79,0.00,,,0.00,,2013-03-01 04:52:00,